Regional Weather Roundup
Issued by NWS

Home | Current Version | Previous Version | Graphics & Text | Print | Product List | Glossary On
Versions: 1 2 3 4 5 6 7 8 9 10 11 12 13 14 15 16 17 18 19 20 21 22 23 24 25 26 27 28 29 30 31 32 33 34 35 36 37 38 39 40 41 42 43 44 45 46 47 48 49 50
000
ASUS43 KIND 100759
RWRIN

WEATHER ROUNDUP FOR INDIANA
NATIONAL WEATHER SERVICE INDIANAPOLIS IN
400 AM EDT THU JUL 10 2014

NOTE: "FAIR" INDICATES FEW OR NO CLOUDS BELOW 12,000 FEET WITH NO
SIGNIFICANT WEATHER AND/OR OBSTRUCTIONS TO VISIBILITY.

* - STATION DOES NOT REPORT WEATHER SUCH AS PRECIPITATION OR FOG.

+ - STATION NOT QUALITY CONTROLLED BY THE NATIONAL WEATHER SERVICE.
    USE DATA WITH CAUTION...ESPECIALLY DEWPOINT AND RELATIVE
    HUMIDITY OBSERVATIONS.

INZ001>003-010>013-019-020-100900-
NORTHWEST INDIANA

CITY           SKY/WX    TMP DP  RH WIND       PRES   REMARKS
RENSSELAER +   CLEAR     59  55  88 N3        30.10R
VALPARAISO     CLEAR     57  55  93 CALM      30.10S

$$

LMZ046-743>745-100900-
SOUTHERN LAKE MICHIGAN

STATION/POSITION TIME  TEMP WIND        PRES
                       AIR  DIR/SP/G
                 (UTC) (F)  (DEG/KT/KT) (MB)
MICHIGAN CITY    0700   63  120/  5/  5   N/A

$$

INZ004-005-014>016-021>024-100900-
NORTH CENTRAL INDIANA

CITY           SKY/WX    TMP DP  RH WIND       PRES   REMARKS
GOSHEN         CLEAR     59  54  83 CALM      30.09S
SOUTH BEND     CLEAR     56  52  86 CALM      30.11R

$$

INZ006>009-017-018-025>027-100900-
NORTHEAST INDIANA

CITY           SKY/WX    TMP DP  RH WIND       PRES   REMARKS
ANGOLA *+      CLEAR     55  54  94 CALM      30.09R
FORT WAYNE     PTCLDY    60  54  80 N3        30.09R

$$

INZ028-029-035-036-043>045-051>053-100900-
WEST CENTRAL INDIANA

CITY           SKY/WX    TMP DP  RH WIND       PRES   REMARKS
GREENCASTLE +  CLEAR     61  57  88 N3        30.08S
LAFAYETTE      CLEAR     59  55  87 CALM      30.09R
TERRE HAUTE    CLEAR     58  57  97 CALM      30.07S

$$

INZ030>032-037>040-046>048-054>057-064-065-100900-
CENTRAL INDIANA

CITY           SKY/WX    TMP DP  RH WIND       PRES   REMARKS
INDIANAPOLIS   PTCLDY    61  56  83 N6        30.07R
-EAGLE CREEK   PTCLDY    63  56  78 N3        30.07S
KOKOMO *+      MOCLDY    64  57  77 NE6       30.09S
MT COMFORT *+  CLEAR     57 N/A N/A CALM      30.08S
SHELBYVILLE    CLEAR     60  56  86 N5        30.07R

$$

INZ033-034-041-042-049-050-058-059-100900-
EAST CENTRAL INDIANA

CITY           SKY/WX    TMP DP  RH WIND       PRES   REMARKS
MUNCIE         CLOUDY    64  59  83 N3        30.08S

$$

INZ060-061-067>069-081>083-085>088-100900-
SOUTHWEST INDIANA

CITY           SKY/WX    TMP DP  RH WIND       PRES   REMARKS
EVANSVILLE     MOCLDY    71  61  70 N3        30.06S
HUNTINGBURG *+   N/A     66  61  82 CALM      30.06S

$$

INZ062-063-066-070>080-084-089>092-100900-
SOUTH CENTRAL AND SOUTHEAST INDIANA

CITY           SKY/WX    TMP DP  RH WIND       PRES   REMARKS
BLOOMINGTON    CLEAR     58  56  93 CALM      30.07S

$$



USA.gov is the U.S. government's official web portal to all federal, state and local government web resources and services.